Tracking 19559 objects as of 26-Mar-2019
HD Live streaming from Space Station
objects crossing your sky now

FLOCK 1C 8

Track FLOCK 1C 8 now!
10-day predictions
FLOCK 1C 8 is classified as:


NORAD ID: 40040
Int'l Code: 2014-033AG
Perigee: 591.5 km
Apogee: 607.8 km
Inclination: 97.9 °
Period: 96.5 minutes
Semi major axis: 6970 km
RCS: Unknown
Launch date: June 19, 2014
Source: United States (US)
Launch site: Orenburg, Russia (OREN)
aabbcc
Your satellite tracking list
Your tracking list is empty




NASA's NSSDC Master Catalog

Two Line Element Set (TLE):
1 40040U 14033AG  19084.85387472 +.00000355 +00000-0 +40981-4 0  9994
2 40040 097.9408 013.0600 0011712 313.3183 046.7058 14.91745133258510
Source of the keplerian elements: AFSPC